Location: Chrząstowo
(52.0654°N, 17.1290°E)
Time: 23:52:17
(UTC+02:00)

ISS - Visible Passes

Search period start: 20 September 2018 00:00
Search period end: 30 September 2018 00:00
Orbit: 403 x 408 km, 51.6° (Epoch: 20 September)

Date Brightness Start Highest point End Pass type
(mag) Time Alt. Az. Time Alt. Az. Time Alt. Az.
22 Sep -1.6 20:28:03 10° S 20:28:49 14° S 20:28:49 14° S visible
23 Sep -1.6 19:37:32 10° SSE 19:38:43 12° SE 19:39:35 11° ESE visible
23 Sep -1.4 21:11:27 10° SW 21:12:18 16° SW 21:12:18 16° SW visible
24 Sep -2.9 20:19:53 10° SW 20:22:49 30° SSE 20:22:51 30° SSE visible
25 Sep -2.3 19:28:33 10° SSW 19:31:06 21° SE 19:33:16 12° E visible
25 Sep -2.5 21:03:56 10° WSW 21:05:57 33° SW 21:05:57 33° SW visible
26 Sep -3.5 20:12:10 10° SW 20:15:21 48° SSE 20:16:13 37° ESE visible
26 Sep -0.8 21:48:27 10° W 21:48:54 13° W 21:48:54 13° W visible
27 Sep -2.9 19:20:30 10° SW 19:23:32 34° SSE 19:26:24 11° E visible
27 Sep -3.1 20:56:32 10° W 20:59:04 50° WSW 20:59:04 50° WSW visible
28 Sep -3.8 20:04:38 10° WSW 20:07:55 69° SSE 20:09:10 34° E visible
28 Sep -0.9 21:41:04 10° W 21:41:51 16° W 21:41:51 16° W visible
29 Sep -3.5 19:12:47 10° WSW 19:16:00 54° SSE 19:19:13 10° E visible
29 Sep -3.3 20:49:08 10° W 20:51:53 59° W 20:51:53 59° W visible
